User: anonymous   Login
Location: Unspecified
(35.6961°N, 0.0000°E)
Time: 09:33:49
(UTC+00:00)
Language:

BEESAT 3 - Orbit

View from above orbital plane
View from above orbital plane
View from above satellite
View from above satellite

Ground track
Ground track

The orbit data is extracted from the following two-line orbital elements,

1 39134U 13015E   19174.88606108 +.00000477 +00000-0 +31237-4 0  9997
2 39134 064.8635 003.6098 0030882 302.7296 057.0855 15.20160137341004
Epoch (UTC): 23 June 2019 21:15:55
Eccentricity: 0.0030882
inclination: 64.8635°
perigee height: 484 km
apogee height: 526 km
right ascension of ascending node: 3.6098°
argument of perigee: 302.7296°
revolutions per day: 15.20160137
mean anomaly at epoch: 57.0855°
orbit number at epoch: 34100

The dashed part of the orbit path shows where the satellite is in the earth's shadow,  

DLR